Time,TemperatureF,DewpointF,PressureIn,WindDirection,WindDirectionDegrees,WindSpeedMPH,WindSpeedGustMPH,Humidity,HourlyPrecipIn,Conditions,Clouds,dailyrainin,SoftwareType,DateUTC
2013-04-16 00:02:00,33.0,30.0,-100.00,North,10,5.0,6.0,88,0.00,,,-99.99,,2013-04-16 06:02:00,
2013-04-16 00:12:00,32.0,29.0,-100.00,North,349,0.0,2.0,89,0.00,,,-99.99,,2013-04-16 06:12:00,
2013-04-16 00:22:00,33.0,29.0,-100.00,NNE,13,4.0,5.0,87,0.00,,,-99.99,,2013-04-16 06:22:00,
2013-04-16 00:32:00,33.0,29.0,-100.00,NNE,13,4.0,5.0,87,0.00,,,-99.99,,2013-04-16 06:32:00,
2013-04-16 00:42:00,33.0,29.0,-100.00,NNE,13,3.0,4.0,87,0.00,,,-99.99,,2013-04-16 06:42:00,
2013-04-16 00:52:00,33.0,29.0,-100.00,NNE,13,9.0,13.0,82,0.00,,,-99.99,,2013-04-16 06:52:00,
2013-04-16 01:02:00,33.0,29.0,-100.00,NNE,13,9.0,13.0,82,0.00,,,-99.99,,2013-04-16 07:02:00,
2013-04-16 01:12:00,34.0,22.0,-100.00,NNE,17,13.0,15.0,62,0.00,,,-99.99,,2013-04-16 07:12:00,
2013-04-16 01:22:00,34.0,23.0,-100.00,NNE,16,11.0,13.0,62,0.00,,,-99.99,,2013-04-16 07:22:00,
2013-04-16 01:32:00,34.0,23.0,-100.00,NNE,16,11.0,13.0,62,0.00,,,-99.99,,2013-04-16 07:32:00,
2013-04-16 01:42:00,35.0,22.0,-100.00,NNE,13,13.0,16.0,59,0.00,,,-99.99,,2013-04-16 07:42:00,
2013-04-16 01:53:00,35.0,22.0,-100.00,NNE,13,13.0,16.0,59,0.00,,,-99.99,,2013-04-16 07:53:00,
2013-04-16 02:02:00,35.0,22.0,-100.00,NNE,13,13.0,16.0,59,0.00,,,-99.99,,2013-04-16 08:02:00,
2013-04-16 02:11:00,34.0,22.0,-100.00,North,10,13.0,16.0,60,0.00,,,-99.99,,2013-04-16 08:11:00,
2013-04-16 02:22:00,34.0,22.0,-100.00,NNE,23,11.0,13.0,62,0.00,,,-99.99,,2013-04-16 08:22:00,
2013-04-16 02:32:00,34.0,22.0,-100.00,NNE,23,11.0,13.0,62,0.00,,,-99.99,,2013-04-16 08:32:00,
2013-04-16 02:42:00,34.0,20.0,-100.00,NNE,21,15.0,22.0,58,0.00,,,-99.99,,2013-04-16 08:42:00,
2013-04-16 02:52:00,34.0,20.0,-100.00,NNE,21,15.0,22.0,58,0.00,,,-99.99,,2013-04-16 08:52:00,
2013-04-16 03:02:00,34.0,20.0,-100.00,NNE,21,15.0,22.0,58,0.00,,,-99.99,,2013-04-16 09:02:00,
2013-04-16 03:11:00,34.0,19.0,-100.00,NNE,28,21.0,26.0,54,0.00,,,-99.99,,2013-04-16 09:11:00,
2013-04-16 03:22:00,33.0,19.0,-100.00,NNE,21,17.0,22.0,55,0.00,,,-99.99,,2013-04-16 09:22:00,
2013-04-16 03:32:00,33.0,19.0,-100.00,NNE,21,17.0,22.0,55,0.00,,,-99.99,,2013-04-16 09:32:00,
2013-04-16 03:42:00,33.0,18.0,-100.00,NNE,25,22.0,27.0,54,0.00,,,-99.99,,2013-04-16 09:42:00,
2013-04-16 03:53:00,33.0,17.0,-100.00,NNE,25,20.0,24.0,53,0.00,,,-99.99,,2013-04-16 09:53:00,
2013-04-16 04:03:00,33.0,17.0,-100.00,NNE,25,20.0,24.0,53,0.00,,,-99.99,,2013-04-16 10:03:00,
2013-04-16 04:12:00,33.0,17.0,-100.00,NNE,25,20.0,24.0,53,0.00,,,-99.99,,2013-04-16 10:12:00,
2013-04-16 04:22:00,32.0,17.0,-100.00,NNE,25,17.0,22.0,54,0.00,,,-99.99,,2013-04-16 10:22:00,
2013-04-16 04:32:00,32.0,17.0,-100.00,NNE,25,17.0,22.0,54,0.00,,,-99.99,,2013-04-16 10:32:00,
2013-04-16 04:42:00,31.0,18.0,-100.00,NNE,28,17.0,22.0,57,0.00,,,-99.99,,2013-04-16 10:42:00,
2013-04-16 04:53:00,31.0,18.0,-100.00,NNE,25,19.0,23.0,59,0.00,,,-99.99,,2013-04-16 10:53:00,
2013-04-16 05:02:00,31.0,18.0,-100.00,NNE,25,19.0,23.0,59,0.00,,,-99.99,,2013-04-16 11:02:00,
2013-04-16 05:12:00,31.0,18.0,-100.00,NNE,24,17.0,21.0,59,0.00,,,-99.99,,2013-04-16 11:12:00,
2013-04-16 05:22:00,31.0,18.0,-100.00,NNE,24,17.0,21.0,59,0.00,,,-99.99,,2013-04-16 11:22:00,
2013-04-16 05:32:00,31.0,18.0,-100.00,NNE,24,17.0,21.0,59,0.00,,,-99.99,,2013-04-16 11:32:00,
2013-04-16 05:42:00,31.0,18.0,-100.00,NNE,32,17.0,22.0,60,0.00,,,-99.99,,2013-04-16 11:42:00,
2013-04-16 05:52:00,29.0,21.0,-100.00,NE,37,15.0,18.0,71,0.00,,,-99.99,,2013-04-16 11:52:00,
2013-04-16 06:02:00,29.0,21.0,-100.00,NE,37,15.0,18.0,71,0.00,,,-99.99,,2013-04-16 12:02:00,
2013-04-16 06:12:00,29.0,22.0,-100.00,NNE,21,18.0,20.0,74,0.00,,,-99.99,,2013-04-16 12:12:00,
2013-04-16 06:22:00,29.0,22.0,-100.00,NNE,21,18.0,20.0,74,0.00,,,-99.99,,2013-04-16 12:22:00,
2013-04-16 06:31:00,29.0,22.0,-100.00,NNE,21,18.0,20.0,74,0.00,,,-99.99,,2013-04-16 12:31:00,
2013-04-16 06:42:00,28.0,23.0,-100.00,NNE,21,16.0,20.0,79,0.00,,,-99.99,,2013-04-16 12:42:00,
2013-04-16 06:52:00,28.0,23.0,-100.00,NNE,20,18.0,22.0,82,0.00,,,-99.99,,2013-04-16 12:52:00,
2013-04-16 07:02:00,28.0,23.0,-100.00,NNE,20,18.0,22.0,82,0.00,,,-99.99,,2013-04-16 13:02:00,
2013-04-16 07:12:00,28.0,22.0,-100.00,NNE,13,17.0,22.0,78,0.00,,,-99.99,,2013-04-16 13:12:00,
2013-04-16 07:22:00,28.0,22.0,-100.00,North,10,15.0,20.0,79,0.00,,,-99.99,,2013-04-16 13:22:00,
2013-04-16 07:32:00,28.0,22.0,-100.00,North,10,15.0,20.0,79,0.00,,,-99.99,,2013-04-16 13:32:00,
2013-04-16 07:42:00,28.0,22.0,-100.00,North,10,15.0,20.0,79,0.00,,,-99.99,,2013-04-16 13:42:00,
2013-04-16 07:52:00,28.0,23.0,-100.00,North,10,13.0,17.0,81,0.00,,,-99.99,,2013-04-16 13:52:00,
2013-04-16 08:02:00,28.0,23.0,-100.00,North,10,13.0,17.0,81,0.00,,,-99.99,,2013-04-16 14:02:00,
2013-04-16 08:12:00,27.0,24.0,-100.00,NNE,21,16.0,21.0,89,0.00,,,-99.99,,2013-04-16 14:12:00,
2013-04-16 08:22:00,27.0,25.0,-100.00,NNE,17,11.0,13.0,93,0.00,,,-99.99,,2013-04-16 14:22:00,
2013-04-16 08:32:00,27.0,25.0,-100.00,NNE,17,11.0,13.0,93,0.00,,,-99.99,,2013-04-16 14:32:00,
2013-04-16 08:42:00,26.0,25.0,-100.00,NNE,17,16.0,19.0,93,0.00,,,-99.99,,2013-04-16 14:42:00,
2013-04-16 08:52:00,26.0,24.0,-100.00,NNE,13,16.0,19.0,92,0.00,,,-99.99,,2013-04-16 14:52:00,
2013-04-16 09:01:00,26.0,24.0,-100.00,NNE,13,16.0,19.0,92,0.00,,,-99.99,,2013-04-16 15:01:00,
2013-04-16 09:12:00,27.0,25.0,-100.00,NNE,13,15.0,18.0,94,0.00,,,-99.99,,2013-04-16 15:12:00,
2013-04-16 09:22:00,27.0,24.0,-100.00,North,11,19.0,23.0,88,0.00,,,-99.99,,2013-04-16 15:22:00,
2013-04-16 09:32:00,27.0,24.0,-100.00,North,11,19.0,23.0,88,0.00,,,-99.99,,2013-04-16 15:32:00,
2013-04-16 09:43:00,27.0,24.0,-100.00,North,11,19.0,23.0,88,0.00,,,-99.99,,2013-04-16 15:43:00,
2013-04-16 09:53:00,28.0,23.0,-100.00,North,11,20.0,24.0,79,0.00,,,-99.99,,2013-04-16 15:53:00,
2013-04-16 10:03:00,28.0,23.0,-100.00,North,11,20.0,24.0,79,0.00,,,-99.99,,2013-04-16 16:03:00,
2013-04-16 10:13:00,28.0,23.0,-100.00,North,11,20.0,24.0,79,0.00,,,-99.99,,2013-04-16 16:13:00,
2013-04-16 10:22:00,29.0,22.0,-100.00,North,4,19.0,22.0,77,0.00,,,-99.99,,2013-04-16 16:22:00,
2013-04-16 10:32:00,29.0,22.0,-100.00,North,4,19.0,22.0,77,0.00,,,-99.99,,2013-04-16 16:32:00,
2013-04-16 10:42:00,29.0,22.0,-100.00,North,4,19.0,22.0,77,0.00,,,-99.99,,2013-04-16 16:42:00,
2013-04-16 10:52:00,29.0,22.0,-100.00,North,352,20.0,25.0,75,0.00,,,-99.99,,2013-04-16 16:52:00,
2013-04-16 11:02:00,29.0,22.0,-100.00,North,352,20.0,25.0,75,0.00,,,-99.99,,2013-04-16 17:02:00,
2013-04-16 11:12:00,30.0,24.0,-100.00,North,349,18.0,23.0,76,0.00,,,-99.99,,2013-04-16 17:12:00,
2013-04-16 11:22:00,32.0,23.0,-100.00,North,354,18.0,23.0,68,0.00,,,-99.99,,2013-04-16 17:22:00,
2013-04-16 11:32:00,32.0,23.0,-100.00,North,354,18.0,23.0,68,0.00,,,-99.99,,2013-04-16 17:32:00,
2013-04-16 11:43:00,32.0,23.0,-100.00,North,354,18.0,23.0,68,0.00,,,-99.99,,2013-04-16 17:43:00,
2013-04-16 11:53:00,33.0,21.0,-100.00,NNW,340,17.0,19.0,60,0.00,,,-99.99,,2013-04-16 17:53:00,
2013-04-16 12:02:00,33.0,21.0,-100.00,NNW,340,17.0,19.0,60,0.00,,,-99.99,,2013-04-16 18:02:00,
2013-04-16 12:12:00,35.0,20.0,-100.00,North,8,18.0,23.0,56,0.00,,,-99.99,,2013-04-16 18:12:00,
2013-04-16 12:22:00,36.0,22.0,-100.00,NNE,24,17.0,21.0,56,0.00,,,-99.99,,2013-04-16 18:22:00,
2013-04-16 12:32:00,36.0,22.0,-100.00,NNE,24,17.0,21.0,56,0.00,,,-99.99,,2013-04-16 18:32:00,
2013-04-16 12:42:00,35.0,21.0,-100.00,North,1,21.0,25.0,55,0.00,,,-99.99,,2013-04-16 18:42:00,
2013-04-16 12:52:00,35.0,21.0,-100.00,North,1,21.0,25.0,55,0.00,,,-99.99,,2013-04-16 18:52:00,
2013-04-16 13:00:00,38.0,20.0,-100.00,NNE,20,17.0,22.0,48,0.00,,,-99.99,,2013-04-16 19:00:00,
2013-04-16 13:01:00,35.0,21.0,-100.00,North,1,21.0,25.0,55,0.00,,,-99.99,,2013-04-16 19:01:00,
2013-04-16 13:12:00,36.0,23.0,-100.00,North,356,17.0,22.0,57,0.00,,,-99.99,,2013-04-16 19:12:00,
2013-04-16 13:22:00,37.0,20.0,-100.00,NNE,24,18.0,23.0,51,0.00,,,-99.99,,2013-04-16 19:22:00,
2013-04-16 13:30:00,39.0,20.0,-100.00,North,11,19.0,24.0,45,0.00,,,-99.99,,2013-04-16 19:30:00,
2013-04-16 13:32:00,37.0,20.0,-100.00,NNE,24,18.0,23.0,51,0.00,,,-99.99,,2013-04-16 19:32:00,
2013-04-16 13:42:00,38.0,20.0,-100.00,NNE,20,17.0,22.0,48,0.00,,,-99.99,,2013-04-16 19:42:00,
2013-04-16 13:52:00,38.0,20.0,-100.00,NNE,20,17.0,22.0,48,0.00,,,-99.99,,2013-04-16 19:52:00,
2013-04-16 14:12:00,39.0,20.0,-100.00,North,11,19.0,24.0,45,0.00,,,-99.99,,2013-04-16 20:12:00,
2013-04-16 14:22:00,39.0,20.0,-100.00,North,11,19.0,24.0,45,0.00,,,-99.99,,2013-04-16 20:22:00,
2013-04-16 14:42:00,41.0,18.0,-100.00,NNE,21,18.0,22.0,38,0.00,,,-99.99,,2013-04-16 20:42:00,
2013-04-16 14:52:00,44.0,18.0,-100.00,North,4,14.0,17.0,36,0.00,,,-99.99,,2013-04-16 20:52:00,
2013-04-16 15:02:00,44.0,18.0,-100.00,North,4,14.0,17.0,36,0.00,,,-99.99,,2013-04-16 21:02:00,
2013-04-16 15:12:00,44.0,16.0,-100.00,North,3,15.0,20.0,32,0.00,,,-99.99,,2013-04-16 21:12:00,
2013-04-16 15:22:00,42.0,14.0,-100.00,NNE,23,13.0,19.0,32,0.00,,,-99.99,,2013-04-16 21:22:00,
2013-04-16 15:32:00,42.0,14.0,-100.00,NNE,23,13.0,19.0,32,0.00,,,-99.99,,2013-04-16 21:32:00,
2013-04-16 15:43:00,43.0,15.0,-100.00,North,11,13.0,18.0,32,0.00,,,-99.99,,2013-04-16 21:43:00,
2013-04-16 15:53:00,43.0,14.0,-100.00,North,357,17.0,26.0,31,0.00,,,-99.99,,2013-04-16 21:53:00,
2013-04-16 16:02:00,43.0,14.0,-100.00,North,357,17.0,26.0,31,0.00,,,-99.99,,2013-04-16 22:02:00,
2013-04-16 16:12:00,44.0,16.0,-100.00,NNW,347,13.0,17.0,31,0.00,,,-99.99,,2013-04-16 22:12:00,
2013-04-16 16:22:00,45.0,15.0,-100.00,North,360,20.0,24.0,30,0.00,,,-99.99,,2013-04-16 22:22:00,
2013-04-16 16:32:00,45.0,15.0,-100.00,North,360,20.0,24.0,30,0.00,,,-99.99,,2013-04-16 22:32:00,
2013-04-16 16:42:00,45.0,17.0,-100.00,NNE,13,21.0,26.0,32,0.00,,,-99.99,,2013-04-16 22:42:00,
2013-04-16 16:52:00,45.0,14.0,-100.00,NNE,16,15.0,21.0,28,0.00,,,-99.99,,2013-04-16 22:52:00,
2013-04-16 17:02:00,45.0,14.0,-100.00,NNE,16,15.0,21.0,28,0.00,,,-99.99,,2013-04-16 23:02:00,
2013-04-16 17:12:00,45.0,15.0,-100.00,NNW,346,18.0,24.0,29,0.00,,,-99.99,,2013-04-16 23:12:00,
2013-04-16 17:22:00,45.0,16.0,-100.00,North,359,18.0,24.0,30,0.00,,,-99.99,,2013-04-16 23:22:00,
2013-04-16 17:32:00,45.0,16.0,-100.00,North,359,18.0,24.0,30,0.00,,,-99.99,,2013-04-16 23:32:00,
2013-04-16 17:42:00,45.0,14.0,-100.00,North,360,17.0,24.0,29,0.00,,,-99.99,,2013-04-16 23:42:00,
2013-04-16 17:52:00,45.0,14.0,-100.00,North,3,19.0,23.0,28,0.00,,,-99.99,,2013-04-16 23:52:00,
2013-04-16 18:01:00,45.0,14.0,-100.00,North,3,19.0,23.0,28,0.00,,,-99.99,,2013-04-17 00:01:00,
2013-04-16 18:12:00,45.0,14.0,-100.00,North,352,19.0,24.0,28,0.00,,,-99.99,,2013-04-17 00:12:00,
2013-04-16 18:22:00,45.0,14.0,-100.00,North,3,19.0,22.0,29,0.00,,,-99.99,,2013-04-17 00:22:00,
2013-04-16 18:32:00,45.0,14.0,-100.00,North,3,19.0,22.0,29,0.00,,,-99.99,,2013-04-17 00:32:00,
2013-04-16 18:42:00,45.0,13.0,-100.00,North,350,21.0,25.0,28,0.00,,,-99.99,,2013-04-17 00:42:00,
2013-04-16 18:52:00,44.0,13.0,-100.00,North,354,19.0,22.0,28,0.00,,,-99.99,,2013-04-17 00:52:00,
2013-04-16 19:02:00,44.0,13.0,-100.00,North,354,19.0,22.0,28,0.00,,,-99.99,,2013-04-17 01:02:00,
2013-04-16 19:12:00,43.0,13.0,-100.00,North,356,18.0,22.0,29,0.00,,,-99.99,,2013-04-17 01:12:00,
2013-04-16 19:22:00,43.0,14.0,-100.00,North,353,15.0,19.0,31,0.00,,,-99.99,,2013-04-17 01:22:00,
2013-04-16 19:32:00,43.0,14.0,-100.00,North,353,15.0,19.0,31,0.00,,,-99.99,,2013-04-17 01:32:00,
2013-04-16 19:42:00,43.0,14.0,-100.00,North,353,15.0,19.0,31,0.00,,,-99.99,,2013-04-17 01:42:00,
2013-04-16 19:52:00,42.0,14.0,-100.00,North,3,20.0,22.0,31,0.00,,,-99.99,,2013-04-17 01:52:00,
2013-04-16 20:01:00,42.0,14.0,-100.00,North,3,20.0,22.0,31,0.00,,,-99.99,,2013-04-17 02:01:00,
2013-04-16 20:12:00,41.0,13.0,-100.00,North,4,21.0,25.0,31,0.00,,,-99.99,,2013-04-17 02:12:00,
2013-04-16 20:22:00,40.0,13.0,-100.00,North,10,15.0,20.0,33,0.00,,,-99.99,,2013-04-17 02:22:00,
2013-04-16 20:32:00,40.0,13.0,-100.00,North,10,15.0,20.0,33,0.00,,,-99.99,,2013-04-17 02:32:00,
2013-04-16 20:42:00,40.0,14.0,-100.00,North,8,17.0,20.0,34,0.00,,,-99.99,,2013-04-17 02:42:00,
2013-04-16 20:52:00,39.0,14.0,-100.00,North,10,15.0,19.0,35,0.00,,,-99.99,,2013-04-17 02:52:00,
2013-04-16 21:02:00,39.0,14.0,-100.00,North,10,15.0,19.0,35,0.00,,,-99.99,,2013-04-17 03:02:00,
2013-04-16 21:12:00,38.0,13.0,-100.00,North,7,18.0,21.0,35,0.00,,,-99.99,,2013-04-17 03:12:00,
2013-04-16 21:22:00,37.0,13.0,-100.00,North,6,17.0,22.0,37,0.00,,,-99.99,,2013-04-17 03:22:00,
2013-04-16 21:32:00,37.0,13.0,-100.00,North,6,17.0,22.0,37,0.00,,,-99.99,,2013-04-17 03:32:00,
2013-04-16 21:42:00,37.0,13.0,-100.00,North,3,16.0,20.0,37,0.00,,,-99.99,,2013-04-17 03:42:00,
2013-04-16 21:53:00,36.0,13.0,-100.00,North,10,16.0,18.0,39,0.00,,,-99.99,,2013-04-17 03:53:00,
2013-04-16 22:02:00,36.0,13.0,-100.00,North,10,16.0,18.0,39,0.00,,,-99.99,,2013-04-17 04:02:00,
2013-04-16 22:12:00,35.0,13.0,-100.00,North,10,16.0,18.0,39,0.00,,,-99.99,,2013-04-17 04:12:00,
2013-04-16 22:22:00,35.0,13.0,-100.00,NNE,16,15.0,19.0,40,0.00,,,-99.99,,2013-04-17 04:22:00,
2013-04-16 22:32:00,35.0,13.0,-100.00,NNE,16,15.0,19.0,40,0.00,,,-99.99,,2013-04-17 04:32:00,
2013-04-16 22:42:00,34.0,13.0,-100.00,NNE,14,15.0,18.0,40,0.00,,,-99.99,,2013-04-17 04:42:00,
2013-04-16 22:52:00,34.0,13.0,-100.00,NNE,13,17.0,20.0,41,0.00,,,-99.99,,2013-04-17 04:52:00,
2013-04-16 23:02:00,34.0,13.0,-100.00,NNE,13,17.0,20.0,41,0.00,,,-99.99,,2013-04-17 05:02:00,
2013-04-16 23:12:00,34.0,13.0,-100.00,NNE,17,17.0,21.0,42,0.00,,,-99.99,,2013-04-17 05:12:00,
2013-04-16 23:22:00,33.0,13.0,-100.00,NNE,14,19.0,23.0,43,0.00,,,-99.99,,2013-04-17 05:22:00,
2013-04-16 23:32:00,33.0,13.0,-100.00,NNE,14,19.0,23.0,43,0.00,,,-99.99,,2013-04-17 05:32:00,
2013-04-16 23:42:00,33.0,13.0,-100.00,NNE,16,19.0,23.0,43,0.00,,,-99.99,,2013-04-17 05:42:00,
2013-04-16 23:52:00,33.0,13.0,-100.00,NNE,16,16.0,20.0,45,0.00,,,-99.99,,2013-04-17 05:52:00,